Location: Calgary
(51.0833°N, 114.0833°W)
Time: 17:03:39
(UTC-06:00)

ISS - Visible Passes

Search period start: 23 March 2019 00:00
Search period end: 02 April 2019 00:00
Orbit: 408 x 411 km, 51.6° (Epoch: 23 March)

Date Brightness Start Highest point End Pass type
(mag) Time Alt. Az. Time Alt. Az. Time Alt. Az.
23 Mar -2.8 21:05:09 10° SSW 21:08:03 29° SSE 21:09:15 22° ESE visible
23 Mar -1.3 22:41:05 10° WSW 22:42:03 18° WSW 22:42:03 18° WSW visible
24 Mar -3.9 21:50:29 10° WSW 21:53:46 68° SSE 21:53:51 68° SSE visible
25 Mar -3.5 20:59:58 10° SW 21:03:10 50° SSE 21:05:30 17° E visible
25 Mar -2.1 22:36:24 10° W 22:38:17 31° W 22:38:17 31° W visible
26 Mar -3.9 21:45:42 10° W 21:49:00 88° NNW 21:49:50 48° ENE visible
26 Mar -0.6 23:22:21 10° W 23:22:36 12° W 23:22:36 12° W visible
27 Mar -3.8 20:55:02 10° WSW 20:58:20 78° SSE 21:01:17 13° E visible
27 Mar -2.7 22:31:40 10° W 22:34:02 44° WNW 22:34:02 44° WNW visible
28 Mar -3.8 21:40:57 10° W 21:44:16 79° N 21:45:25 37° E visible
28 Mar -0.9 23:17:35 10° W 23:18:11 14° W 23:18:11 14° W visible
29 Mar -3.8 20:50:13 10° W 20:53:31 83° N 20:56:45 11° E visible
29 Mar -3.2 22:26:51 10° W 22:29:31 54° W 22:29:31 54° W visible
30 Mar -3.9 21:36:08 10° W 21:39:27 85° NNE 21:40:49 33° E visible
30 Mar -1.0 23:12:48 10° W 23:13:34 15° W 23:13:34 15° W visible
31 Mar -3.7 20:45:23 10° W 20:48:42 79° N 20:52:01 10° E visible
31 Mar -3.2 22:22:00 10° W 22:24:51 49° SW 22:24:51 49° SW visible
01 Apr -3.8 21:31:16 10° W 21:34:33 73° SSW 21:36:07 28° ESE visible
01 Apr -1.0 23:08:11 10° W 23:08:53 14° WSW 23:08:53 14° WSW visible
